| time (UTC) | temp C | wind direction | speed KPH | gust KPH | rain 1hr cm | rain 24hr cm | rain mn cm | humidity % | barometer mb |
| 20260505070436 | 18 | 330 | 3.2 | 3.2 | 0.00 | 0.00 | 0.00 | 58 | 1014.3 |
| 20260505065933 | 18 | 309 | 0.0 | 3.2 | 0.00 | 0.00 | 0.00 | 57 | 1014.4 |
| 20260505065435 | 17 | 237 | 0.0 | 3.2 | 0.00 | 0.00 | 0.00 | 60 | 1014.3 |
| 20260505064933 | 17 | 229 | 0.0 | 3.2 | 0.00 | 0.00 | 0.00 | 61 | 1014.4 |
| 20260505064435 | 17 | 242 | 0.0 | 3.2 | 0.00 | 0.00 | 0.00 | 61 | 1014.4 |
| 20260505063935 | 16 | 332 | 0.0 | 3.2 | 0.00 | 0.00 | 0.00 | 62 | 1014.5 |
| 20260505063435 | 16 | 246 | 0.0 | 3.2 | 0.00 | 0.00 | 0.00 | 63 | 1014.5 |
| 20260505062934 | 16 | 313 | 0.0 | 3.2 | 0.00 | 0.00 | 0.00 | 63 | 1014.4 |
| 20260505062436 | 16 | 256 | 0.0 | 3.2 | 0.00 | 0.00 | 0.00 | 63 | 1014.7 |
| 20260505061933 | 15 | 222 | 1.6 | 3.2 | 0.00 | 0.00 | 0.00 | 64 | 1014.5 |
| 20260505061436 | 15 | 322 | 1.6 | 3.2 | 0.00 | 0.00 | 0.00 | 63 | 1014.3 |
| 20260505060933 | 15 | 297 | 0.0 | 3.2 | 0.00 | 0.00 | 0.00 | 61 | 1014.4 |
| 20260505060436 | 15 | 256 | 0.0 | 3.2 | 0.00 | 0.00 | 0.00 | 62 | 1014.5 |
| 20260505055935 | 15 | 299 | 0.0 | 3.2 | 0.00 | 0.00 | 0.00 | 64 | 1014.3 |
| 20260505055434 | 14 | 310 | 0.0 | 3.2 | 0.00 | 0.00 | 0.00 | 65 | 1014.3 |
| 20260505054935 | 14 | 297 | 1.6 | 3.2 | 0.00 | 0.00 | 0.00 | 66 | 1014.2 |
| 20260505054436 | 13 | 297 | 0.0 | 3.2 | 0.00 | 0.00 | 0.00 | 67 | 1014.1 |
| 20260505053935 | 13 | 317 | 0.0 | 3.2 | 0.00 | 0.00 | 0.00 | 68 | 1014.0 |
| 20260505053434 | 13 | 314 | 3.2 | 3.2 | 0.00 | 0.00 | 0.00 | 68 | 1014.2 |
| 20260505052934 | 12 | 320 | 0.0 | 3.2 | 0.00 | 0.00 | 0.00 | 68 | 1014.1 |
| 20260505052434 | 12 | 252 | 0.0 | 3.2 | 0.00 | 0.00 | 0.00 | 70 | 1014.1 |
| 20260505051935 | 11 | 311 | 0.0 | 3.2 | 0.00 | 0.00 | 0.00 | 70 | 1014.1 |
| 20260505051435 | 11 | 299 | 0.0 | 1.6 | 0.00 | 0.00 | 0.00 | 71 | 1014.1 |
| 20260505050933 | 11 | 242 | 0.0 | 3.2 | 0.00 | 0.00 | 0.00 | 71 | 1014.1 |
| 20260505050437 | 11 | 319 | 1.6 | 3.2 | 0.00 | 0.00 | 0.00 | 72 | 1014.1 |
| 20260505041435 | 10 | 230 | 0.0 | 3.2 | 0.00 | 0.00 | 0.00 | 77 | 1014.0 |
| 20260505040934 | 10 | 228 | 1.6 | 3.2 | 0.00 | 0.00 | 0.00 | 77 | 1013.9 |
| 20260505040436 | 10 | 227 | 1.6 | 1.6 | 0.00 | 0.00 | 0.00 | 76 | 1013.9 |
| 20260505035933 | 9 | 284 | 0.0 | 1.6 | 0.00 | 0.00 | 0.00 | 76 | 1013.9 |
| 20260505035435 | 9 | 224 | 0.0 | 3.2 | 0.00 | 0.00 | 0.00 | 76 | 1013.8 |
| 20260505034934 | 9 | 235 | 0.0 | 3.2 | 0.00 | 0.00 | 0.00 | 77 | 1013.7 |
| 20260505034435 | 9 | 302 | 0.0 | 3.2 | 0.00 | 0.00 | 0.00 | 77 | 1013.7 |
| 20260505033935 | 10 | 299 | 0.0 | 3.2 | 0.00 | 0.00 | 0.00 | 77 | 1013.7 |
| 20260505033435 | 10 | 235 | 0.0 | 1.6 | 0.00 | 0.00 | 0.00 | 77 | 1013.6 |
| 20260505032934 | 10 | 333 | 0.0 | 1.6 | 0.00 | 0.00 | 0.00 | 77 | 1013.7 |
| 20260505032436 | 10 | 297 | 0.0 | 1.6 | 0.00 | 0.00 | 0.00 | 77 | 1013.6 |
| 20260505031934 | 10 | 257 | 0.0 | 1.6 | 0.00 | 0.00 | 0.00 | 77 | 1013.7 |
| 20260505031435 | 10 | 299 | 0.0 | 1.6 | 0.00 | 0.00 | 0.00 | 77 | 1013.7 |
| 20260505030934 | 10 | 304 | 0.0 | 1.6 | 0.00 | 0.00 | 0.00 | 77 | 1014.0 |
| 20260505030435 | 10 | 218 | 0.0 | 1.6 | 0.00 | 0.00 | 0.00 | 77 | 1013.7 |
| 20260505025935 | 10 | 309 | 0.0 | 1.6 | 0.00 | 0.00 | 0.00 | 77 | 1013.8 |
| 20260505025434 | 10 | 336 | 0.0 | 1.6 | 0.00 | 0.00 | 0.00 | 77 | 1014.0 |
| 20260505024934 | 10 | 242 | 0.0 | 1.6 | 0.00 | 0.00 | 0.00 | 77 | 1013.8 |
| 20260505024437 | 10 | 241 | 0.0 | 1.6 | 0.00 | 0.00 | 0.00 | 77 | 1013.9 |
| 20260505023936 | 10 | 224 | 0.0 | 1.6 | 0.00 | 0.00 | 0.00 | 77 | 1014.1 |
| 20260505023436 | 10 | 231 | 0.0 | 1.6 | 0.00 | 0.00 | 0.00 | 77 | 1014.1 |
| 20260505022933 | 10 | 242 | 0.0 | 3.2 | 0.00 | 0.00 | 0.00 | 77 | 1014.1 |
| 20260505022440 | 10 | 238 | 0.0 | 3.2 | 0.00 | 0.00 | 0.00 | 77 | 1014.1 |
| 20260505021938 | 10 | 242 | 0.0 | 1.6 | 0.00 | 0.00 | 0.00 | 77 | 1014.3 |
| 20260505021443 | 10 | 297 | 0.0 | 1.6 | 0.00 | 0.00 | 0.00 | 76 | 1014.1 |
| 20260505020937 | 10 | 283 | 0.0 | 0.0 | 0.00 | 0.00 | 0.00 | 76 | 1014.1 |
| 20260505020443 | 10 | 261 | 0.0 | 0.0 | 0.00 | 0.00 | 0.00 | 76 | 1014.2 |
| 20260505015938 | 10 | 246 | 0.0 | 1.6 | 0.00 | 0.00 | 0.00 | 75 | 1014.0 |
| 20260505015436 | 10 | 246 | 0.0 | 1.6 | 0.00 | 0.00 | 0.00 | 75 | 1014.3 |
| 20260505014933 | 10 | 252 | 0.0 | 1.6 | 0.00 | 0.00 | 0.00 | 75 | 1014.2 |
| 20260505014437 | 10 | 262 | 0.0 | 1.6 | 0.00 | 0.00 | 0.00 | 75 | 1014.3 |
| 20260505013933 | 10 | 297 | 0.0 | 1.6 | 0.00 | 0.00 | 0.00 | 75 | 1014.3 |
| 20260505013435 | 10 | 230 | 0.0 | 1.6 | 0.00 | 0.00 | 0.00 | 75 | 1014.2 |
| 20260505012933 | 10 | 230 | 0.0 | 1.6 | 0.00 | 0.00 | 0.00 | 75 | 1014.3 |
| 20260505012435 | 10 | 235 | 0.0 | 0.0 | 0.00 | 0.00 | 0.00 | 74 | 1014.4 |
| 20260505011935 | 10 | 299 | 0.0 | 0.0 | 0.00 | 0.00 | 0.00 | 74 | 1014.3 |
| 20260505011435 | 10 | 242 | 0.0 | 1.6 | 0.00 | 0.00 | 0.00 | 74 | 1014.5 |
| 20260505010934 | 10 | 233 | 0.0 | 1.6 | 0.00 | 0.00 | 0.00 | 74 | 1014.4 |
| 20260505010436 | 10 | 246 | 0.0 | 1.6 | 0.00 | 0.00 | 0.00 | 74 | 1014.3 |
| 20260505005935 | 10 | 229 | 1.6 | 1.6 | 0.00 | 0.00 | 0.00 | 73 | 1014.4 |
| 20260505005440 | 11 | 230 | 0.0 | 3.2 | 0.00 | 0.00 | 0.00 | 74 | 1014.3 |
| 20260505004938 | 11 | 269 | 0.0 | 3.2 | 0.00 | 0.00 | 0.00 | 73 | 1014.4 |
| 20260505004440 | 11 | 242 | 0.0 | 1.6 | 0.00 | 0.00 | 0.00 | 73 | 1014.5 |
| 20260505003937 | 11 | 301 | 0.0 | 1.6 | 0.00 | 0.00 | 0.00 | 74 | 1014.4 |
| 20260505003439 | 11 | 244 | 0.0 | 3.2 | 0.00 | 0.00 | 0.00 | 73 | 1014.3 |
| 20260505002938 | 11 | 233 | 1.6 | 3.2 | 0.00 | 0.00 | 0.00 | 74 | 1014.6 |
| 20260505002439 | 11 | 245 | 1.6 | 3.2 | 0.00 | 0.00 | 0.00 | 74 | 1014.4 |
| 20260505001939 | 11 | 227 | 1.6 | 3.2 | 0.00 | 0.00 | 0.00 | 74 | 1014.4 |
| 20260505001439 | 11 | 242 | 0.0 | 3.2 | 0.00 | 0.00 | 0.00 | 74 | 1014.5 |
| 20260505000937 | 11 | 240 | 0.0 | 3.2 | 0.00 | 0.00 | 0.00 | 74 | 1014.7 |
| 20260505000440 | 11 | 309 | 0.0 | 1.6 | 0.00 | 0.00 | 0.00 | 74 | 1014.5 |
| 20260504235938 | 11 | 264 | 0.0 | 3.2 | 0.00 | 0.00 | 0.00 | 74 | 1014.7 |
| 20260504235439 | 11 | 269 | 0.0 | 3.2 | 0.00 | 0.00 | 0.00 | 74 | 1014.4 |
| 20260504234937 | 11 | 220 | 0.0 | 1.6 | 0.00 | 0.00 | 0.00 | 74 | 1014.7 |
| 20260504234439 | 12 | 252 | 0.0 | 1.6 | 0.00 | 0.00 | 0.00 | 73 | 1014.6 |
| 20260504233939 | 12 | 275 | 0.0 | 1.6 | 0.00 | 0.00 | 0.00 | 73 | 1014.7 |
| 20260504233439 | 12 | 242 | 0.0 | 1.6 | 0.00 | 0.00 | 0.00 | 73 | 1014.9 |
| 20260504232938 | 12 | 269 | 0.0 | 1.6 | 0.00 | 0.00 | 0.00 | 72 | 1014.6 |
| 20260504232440 | 12 | 290 | 0.0 | 1.6 | 0.00 | 0.00 | 0.00 | 71 | 1014.7 |
| 20260504231937 | 12 | 245 | 0.0 | 1.6 | 0.00 | 0.00 | 0.00 | 71 | 1014.8 |
| 20260504231439 | 12 | 230 | 0.0 | 1.6 | 0.00 | 0.00 | 0.00 | 71 | 1014.8 |
| 20260504230938 | 12 | 230 | 0.0 | 1.6 | 0.00 | 0.00 | 0.00 | 71 | 1015.0 |
| 20260504230439 | 12 | 228 | 0.0 | 1.6 | 0.00 | 0.00 | 0.00 | 71 | 1015.0 |
| 20260504225939 | 12 | 297 | 0.0 | 1.6 | 0.00 | 0.00 | 0.00 | 70 | 1014.9 |
| 20260504225439 | 12 | 299 | 0.0 | 3.2 | 0.00 | 0.00 | 0.00 | 70 | 1014.8 |
| 20260504224938 | 12 | 237 | 0.0 | 3.2 | 0.00 | 0.00 | 0.00 | 70 | 1015.0 |
| 20260504224440 | 12 | 238 | 1.6 | 3.2 | 0.00 | 0.00 | 0.00 | 72 | 1015.1 |
| 20260504223939 | 12 | 229 | 1.6 | 3.2 | 0.00 | 0.00 | 0.00 | 71 | 1015.1 |
| 20260504223439 | 12 | 230 | 1.6 | 3.2 | 0.00 | 0.00 | 0.00 | 70 | 1015.0 |
| 20260504222938 | 13 | 228 | 0.0 | 3.2 | 0.00 | 0.00 | 0.00 | 70 | 1014.9 |
| 20260504222439 | 13 | 288 | 0.0 | 3.2 | 0.00 | 0.00 | 0.00 | 70 | 1015.0 |
| 20260504221940 | 13 | 315 | 0.0 | 1.6 | 0.00 | 0.00 | 0.00 | 70 | 1015.1 |
| 20260504221439 | 13 | 305 | 0.0 | 1.6 | 0.00 | 0.00 | 0.00 | 69 | 1015.2 |
| 20260504220938 | 13 | 315 | 0.0 | 1.6 | 0.00 | 0.00 | 0.00 | 68 | 1015.2 |
| 20260504220450 | 13 | 242 | 0.0 | 1.6 | 0.00 | 0.00 | 0.00 | 67 | 1015.1 |
| 20260504215937 | 13 | 246 | 0.0 | 3.2 | 0.00 | 0.00 | 0.00 | 66 | 1015.1 |
| 20260504215438 | 13 | 222 | 1.6 | 3.2 | 0.00 | 0.00 | 0.00 | 66 | 1015.1 |
| 20260504214938 | 13 | 235 | 0.0 | 1.6 | 0.00 | 0.00 | 0.00 | 65 | 1015.1 |
| 20260504214439 | 13 | 243 | 0.0 | 3.2 | 0.00 | 0.00 | 0.00 | 64 | 1015.0 |
| 20260504213940 | 13 | 242 | 0.0 | 3.2 | 0.00 | 0.00 | 0.00 | 64 | 1015.0 |
| 20260504213440 | 13 | 242 | 0.0 | 3.2 | 0.00 | 0.00 | 0.00 | 63 | 1015.1 |
| 20260504212938 | 14 | 232 | 0.0 | 1.6 | 0.00 | 0.00 | 0.00 | 63 | 1014.9 |
| 20260504212440 | 14 | 235 | 0.0 | 0.0 | 0.00 | 0.00 | 0.00 | 63 | 1014.8 |
| 20260504211938 | 14 | 242 | 0.0 | 1.6 | 0.00 | 0.00 | 0.00 | 62 | 1015.2 |
| 20260504211439 | 14 | 224 | 0.0 | 1.6 | 0.00 | 0.00 | 0.00 | 62 | 1015.1 |
| 20260504210937 | 14 | 242 | 0.0 | 1.6 | 0.00 | 0.00 | 0.00 | 62 | 1015.0 |
| 20260504210440 | 14 | 224 | 0.0 | 1.6 | 0.00 | 0.00 | 0.00 | 63 | 1015.1 |
| 20260504205933 | 14 | 230 | 0.0 | 1.6 | 0.00 | 0.00 | 0.00 | 61 | 1015.3 |
| 20260504205435 | 15 | 230 | 0.0 | 1.6 | 0.00 | 0.00 | 0.00 | 60 | 1015.2 |
| 20260504204934 | 15 | 235 | 0.0 | 1.6 | 0.00 | 0.00 | 0.00 | 62 | 1015.2 |
| 20260504204435 | 15 | 242 | 0.0 | 1.6 | 0.00 | 0.00 | 0.00 | 62 | 1014.8 |
| 20260504203936 | 15 | 256 | 0.0 | 1.6 | 0.00 | 0.00 | 0.00 | 61 | 1015.3 |
| 20260504203435 | 15 | 240 | 0.0 | 1.6 | 0.00 | 0.00 | 0.00 | 63 | 1015.2 |
| 20260504202934 | 15 | 293 | 0.0 | 3.2 | 0.00 | 0.00 | 0.00 | 61 | 1015.2 |
| 20260504202436 | 15 | 237 | 0.0 | 3.2 | 0.00 | 0.00 | 0.00 | 61 | 1015.3 |
| 20260504201934 | 15 | 230 | 0.0 | 1.6 | 0.00 | 0.00 | 0.00 | 60 | 1015.2 |
| 20260504201436 | 15 | 246 | 0.0 | 1.6 | 0.00 | 0.00 | 0.00 | 61 | 1015.2 |
| 20260504200933 | 15 | 213 | 0.0 | 3.2 | 0.00 | 0.00 | 0.00 | 60 | 1015.2 |
| 20260504200436 | 15 | 247 | 0.0 | 3.2 | 0.00 | 0.00 | 0.00 | 60 | 1015.3 |
| 20260504195935 | 16 | 230 | 0.0 | 3.2 | 0.00 | 0.00 | 0.00 | 59 | 1015.2 |
| 20260504194934 | 16 | 233 | 1.6 | 3.2 | 0.00 | 0.00 | 0.00 | 58 | 1015.1 |
| 20260504194436 | 16 | 253 | 0.0 | 1.6 | 0.00 | 0.00 | 0.00 | 57 | 1015.2 |
| 20260504193934 | 16 | 240 | 1.6 | 1.6 | 0.00 | 0.00 | 0.00 | 56 | 1015.3 |
| 20260504193435 | 16 | 236 | 1.6 | 1.6 | 0.00 | 0.00 | 0.00 | 56 | 1015.2 |
| 20260504192934 | 17 | 233 | 0.0 | 1.6 | 0.00 | 0.00 | 0.00 | 55 | 1015.1 |
| 20260504192435 | 17 | 297 | 0.0 | 1.6 | 0.00 | 0.00 | 0.00 | 55 | 1015.0 |
| 20260504191936 | 17 | 235 | 0.0 | 1.6 | 0.00 | 0.00 | 0.00 | 54 | 1015.0 |
| 20260504191435 | 17 | 255 | 0.0 | 1.6 | 0.00 | 0.00 | 0.00 | 54 | 1015.1 |
| 20260504190934 | 17 | 280 | 0.0 | 1.6 | 0.00 | 0.00 | 0.00 | 53 | 1015.1 |
| 20260504190436 | 17 | 281 | 0.0 | 1.6 | 0.00 | 0.00 | 0.00 | 53 | 1015.1 |
| 20260504185934 | 17 | 315 | 0.0 | 1.6 | 0.00 | 0.00 | 0.00 | 53 | 1015.2 |
| 20260504185435 | 17 | 224 | 0.0 | 1.6 | 0.00 | 0.00 | 0.00 | 52 | 1015.0 |
| 20260504184934 | 18 | 240 | 0.0 | 3.2 | 0.00 | 0.00 | 0.00 | 52 | 1015.1 |
| 20260504184436 | 18 | 242 | 0.0 | 3.2 | 0.00 | 0.00 | 0.00 | 50 | 1015.0 |
| 20260504183935 | 18 | 227 | 0.0 | 1.6 | 0.00 | 0.00 | 0.00 | 51 | 1015.1 |
| 20260504183435 | 18 | 259 | 0.0 | 1.6 | 0.00 | 0.00 | 0.00 | 49 | 1015.0 |
| 20260504182934 | 18 | 250 | 0.0 | 1.6 | 0.00 | 0.00 | 0.00 | 47 | 1014.9 |
| 20260504182435 | 19 | 228 | 0.0 | 1.6 | 0.00 | 0.00 | 0.00 | 47 | 1014.8 |
| 20260504181936 | 19 | 209 | 0.0 | 0.0 | 0.00 | 0.00 | 0.00 | 47 | 1014.9 |
| 20260504181435 | 19 | 258 | 0.0 | 0.0 | 0.00 | 0.00 | 0.00 | 47 | 1014.8 |
| 20260504180934 | 20 | 212 | 0.0 | 1.6 | 0.00 | 0.00 | 0.00 | 45 | 1014.9 |
| 20260504180436 | 20 | 242 | 0.0 | 1.6 | 0.00 | 0.00 | 0.00 | 46 | 1014.9 |
| 20260504175934 | 20 | 233 | 0.0 | 1.6 | 0.00 | 0.00 | 0.00 | 45 | 1015.0 |
| 20260504175435 | 20 | 228 | 1.6 | 1.6 | 0.00 | 0.00 | 0.00 | 43 | 1014.9 |
| 20260504174934 | 21 | 246 | 0.0 | 1.6 | 0.00 | 0.00 | 0.00 | 42 | 1014.8 |
| 20260504174437 | 21 | 224 | 0.0 | 1.6 | 0.00 | 0.00 | 0.00 | 41 | 1015.0 |
| 20260504173937 | 21 | 322 | 0.0 | 1.6 | 0.00 | 0.00 | 0.00 | 41 | 1014.9 |
| 20260504173434 | 21 | 230 | 0.0 | 1.6 | 0.00 | 0.00 | 0.00 | 40 | 1014.9 |
| 20260504172935 | 21 | 230 | 0.0 | 1.6 | 0.00 | 0.00 | 0.00 | 40 | 1014.9 |
| 20260504172436 | 22 | 224 | 0.0 | 1.6 | 0.00 | 0.00 | 0.00 | 39 | 1014.9 |
| 20260504171934 | 22 | 293 | 0.0 | 1.6 | 0.00 | 0.00 | 0.00 | 39 | 1014.9 |
| 20260504171435 | 22 | 246 | 0.0 | 0.0 | 0.00 | 0.00 | 0.00 | 38 | 1014.8 |
| 20260504170934 | 22 | 315 | 0.0 | 0.0 | 0.00 | 0.00 | 0.00 | 38 | 1014.8 |
| 20260504170437 | 22 | 217 | 0.0 | 1.6 | 0.00 | 0.00 | 0.00 | 37 | 1014.7 |
| 20260504160434 | 23 | 337 | 0.0 | 3.2 | 0.00 | 0.00 | 0.00 | 36 | 1015.0 |
| 20260504150934 | 23 | 50 | 0.0 | 3.2 | 0.00 | 0.00 | 0.00 | 36 | 1015.2 |
| 20260504150436 | 24 | 309 | 1.6 | 4.8 | 0.00 | 0.00 | 0.00 | 36 | 1015.2 |
| 20260504140935 | 24 | 355 | 3.2 | 4.8 | 0.00 | 0.00 | 0.00 | 35 | 1015.6 |
| 20260504140436 | 25 | 310 | 0.0 | 4.8 | 0.00 | 0.00 | 0.00 | 36 | 1015.7 |
| 20260504130435 | 27 | 350 | 3.2 | 4.8 | 0.00 | 0.00 | 0.00 | 34 | 1016.4 |
| 20260504110435 | 23 | 326 | 1.6 | 3.2 | 0.00 | 0.00 | 0.00 | 37 | 1017.9 |
| 20260504100434 | 22 | 180 | 0.0 | 3.2 | 0.00 | 0.00 | 0.00 | 39 | 1018.6 |
| 20260504081940 | 19 | 219 | 0.0 | 4.8 | 0.00 | 0.00 | 0.00 | 44 | 1019.2 |
| 20260504081439 | 19 | 317 | 0.0 | 4.8 | 0.00 | 0.00 | 0.00 | 44 | 1019.2 |
| 20260504080938 | 18 | 315 | 0.0 | 3.2 | 0.00 | 0.00 | 0.00 | 45 | 1019.3 |
| 20260504080441 | 18 | 309 | 0.0 | 3.2 | 0.00 | 0.00 | 0.00 | 45 | 1019.2 |